User: anonymous   Login
Location: Muenchen
(48.1800°N, 11.5800°E)
Time: 23:11:03
(UTC+01:00)
Language:

Tiros 1 - Orbit

View from above orbital plane
View from above orbital plane
View from above satellite
View from above satellite

Ground track
Ground track

The orbit data is extracted from the following two-line orbital elements,

1 00029U 60002B   17055.48070284 -.00000033  00000-0  26223-4 0  9996
2 00029  48.3785 253.2957 0023750 101.1050 259.2534 14.74142334 40272
Epoch (UTC): 24 February 2017 11:32:12
Eccentricity: 0.0023750
inclination: 48.3785°
perigee height: 631 km
apogee height: 664 km
right ascension of ascending node: 253.2957°
argument of perigee: 101.1050°
revolutions per day: 14.74142334
mean anomaly at epoch: 259.2534°
orbit number at epoch: 4027

The dashed part of the orbit path shows where the satellite is in the earth's shadow,  

DLR